DW8013 Weather Reports


time (UTC)temp
C
wind
direction
speed
KPH
gust
KPH
rain 1hr
cm
rain 24hr
cm
rain mn
cm
humidity
%
barometer
mb
20260510064513 12 5 0.0 0.0 0.00 0.00 0.00 74 1015.3
20260510063011 12 5 0.0 0.0 0.00 0.00 0.00 77 1015.3
20260510061513 12 5 0.0 0.0 0.00 0.00 0.00 79 1015.2
20260510060008 11 5 0.0 0.0 0.00 0.00 0.00 81 1015.2
20260510054514 11 5 0.0 0.0 0.00 0.00 0.00 82 1015.2
20260510053006 11 5 0.0 0.0 0.00 0.00 0.00 83 1015.3
20260510051505 10 5 0.0 0.0 0.00 0.00 0.00 84 1015.2
20260510050005 10 5 0.0 0.0 0.00 0.00 0.00 85 1015.1
20260510044502 10 5 0.0 0.0 0.00 0.00 0.00 85 1015.1
20260510043101 10 5 0.0 0.0 0.00 0.00 0.00 85 1015.1
20260510041603 10 5 0.0 0.0 0.00 0.00 0.00 85 1015.2
20260510040056 10 5 0.0 0.0 0.00 0.00 0.00 85 1015.1
20260510034557 10 5 0.0 0.0 0.00 0.00 0.00 84 1015.1
20260510033108 10 5 0.0 0.0 0.00 0.00 0.00 84 1015.1
20260510031554 10 5 0.0 0.0 0.00 0.00 0.00 83 1014.9
20260510030110 10 5 0.0 0.0 0.00 0.00 0.00 82 1015.0
20260510024651 10 5 0.0 0.0 0.00 0.00 0.00 82 1015.0
20260510023049 10 5 0.0 0.0 0.00 0.00 0.00 80 1015.1
20260510021548 11 5 0.0 0.0 0.00 0.00 0.00 79 1015.3
20260510020046 11 5 0.0 0.0 0.00 0.00 0.00 77 1015.3
20260510014543 11 5 0.0 0.0 0.00 0.00 0.00 76 1015.4
20260510013043 11 5 0.0 0.0 0.00 0.00 0.00 76 1015.4
20260510011541 11 5 0.0 0.0 0.00 0.00 0.00 75 1015.5
20260510010039 11 5 0.0 0.0 0.00 0.00 0.00 74 1015.5
20260510004541 11 5 0.0 0.0 0.00 0.00 0.00 73 1015.7
20260510003043 11 5 0.0 0.0 0.00 0.00 0.00 72 1015.7
20260510001536 11 5 0.0 0.0 0.00 0.00 0.00 71 1015.8
20260510000035 11 5 0.0 0.0 0.00 0.00 0.00 70 1016.1
20260509234542 11 5 0.0 0.0 0.00 0.00 0.00 70 1016.2
20260509233030 11 5 0.0 0.0 0.00 0.00 0.00 69 1016.2
20260509231529 11 5 0.0 0.0 0.00 0.00 0.00 69 1016.3
20260509230029 12 5 0.0 0.0 0.00 0.00 0.00 68 1016.2
20260509224528 12 5 0.0 0.0 0.00 0.00 0.00 68 1016.3
20260509223027 12 5 0.0 0.0 0.00 0.00 0.00 68 1016.4
20260509221531 12 5 0.0 0.0 0.00 0.00 0.00 66 1016.5
20260509220023 12 5 0.0 0.0 0.00 0.00 0.00 65 1016.3
20260509214522 12 5 0.0 0.0 0.00 0.00 0.00 63 1016.3
20260509213022 12 5 0.0 0.0 0.00 0.00 0.00 62 1016.2
20260509211521 13 5 0.0 0.0 0.00 0.00 0.00 61 1016.3
20260509210021 13 5 0.0 0.0 0.00 0.00 0.00 60 1016.2
20260509204519 13 5 0.0 0.0 0.00 0.00 0.00 61 1016.1
20260509203020 13 5 0.0 0.0 0.00 0.00 0.00 60 1016.0
20260509201518 14 5 0.0 0.0 0.00 0.00 0.00 60 1016.1
20260509200018 14 5 0.0 0.0 0.00 0.00 0.00 59 1016.0
20260509194517 15 5 0.0 0.0 0.00 0.00 0.00 58 1016.0
20260509193017 15 5 0.0 0.0 0.00 0.00 0.00 57 1015.7
20260509191517 16 5 0.0 0.0 0.00 0.00 0.00 56 1015.5
20260509190021 16 5 0.0 0.0 0.00 0.00 0.00 55 1015.5
20260509184515 17 5 0.0 0.0 0.00 0.00 0.00 54 1015.5
20260509183016 18 5 0.0 0.0 0.00 0.00 0.00 52 1015.6
20260509181515 18 5 0.0 0.0 0.00 0.00 0.00 51 1015.6
20260509180014 19 5 0.0 0.0 0.00 0.00 0.00 50 1015.5
20260509174515 20 5 0.0 0.0 0.00 0.00 0.00 48 1015.5
20260509173013 20 5 0.0 0.0 0.00 0.00 0.00 47 1015.3
20260509171525 21 5 0.0 0.0 0.00 0.00 0.00 47 1015.2
20260509170013 21 5 0.0 0.0 0.00 0.00 0.00 46 1015.2
20260509164511 22 5 0.0 0.0 0.00 0.00 0.00 46 1015.1
20260509163012 22 5 0.0 0.0 0.00 0.00 0.00 44 1015.2
20260509161509 23 5 0.0 0.0 0.00 0.00 0.00 43 1015.2
20260509160017 22 5 0.0 0.0 0.00 0.00 0.00 38 1015.3
20260509154508 23 5 0.0 0.0 0.00 0.00 0.00 35 1015.2
20260509153009 24 5 0.0 0.0 0.00 0.00 0.00 37 1015.4
20260509151507 22 5 0.0 0.0 0.00 0.00 0.00 36 1015.3
20260509150008 23 5 0.0 0.0 0.00 0.00 0.00 36 1015.2
20260509144506 23 5 0.0 0.0 0.00 0.00 0.00 37 1015.3
20260509143005 25 5 0.0 0.0 0.00 0.00 0.00 35 1015.4
20260509141509 25 5 0.0 0.0 0.00 0.00 0.00 37 1015.5
20260509140001 23 5 0.0 0.0 0.00 0.00 0.00 38 1015.6
20260509134600 23 5 0.0 0.0 0.00 0.00 0.00 40 1015.7
20260509133058 23 5 0.0 0.0 0.00 0.00 0.00 38 1015.8
20260509131557 23 5 0.0 0.0 0.00 0.00 0.00 37 1015.9
20260509130105 24 5 0.0 0.0 0.00 0.00 0.00 38 1016.1
20260509124610 24 5 0.0 0.0 0.00 0.00 0.00 39 1016.1
20260509123056 23 5 0.0 0.0 0.00 0.00 0.00 38 1016.3
20260509121552 23 5 0.0 0.0 0.00 0.00 0.00 38 1016.4
20260509120059 22 5 0.0 0.0 0.00 0.00 0.00 39 1016.6
20260509114546 23 5 0.0 0.0 0.00 0.00 0.00 38 1016.7
20260509113044 23 5 0.0 0.0 0.00 0.00 0.00 40 1016.9
20260509111542 22 5 0.0 0.0 0.00 0.00 0.00 43 1017.1
20260509110039 23 5 0.0 0.0 0.00 0.00 0.00 41 1017.2
20260509104538 22 5 0.0 0.0 0.00 0.00 0.00 42 1017.4
20260509103034 22 5 0.0 0.0 0.00 0.00 0.00 42 1017.3
20260509101533 22 5 0.0 0.0 0.00 0.00 0.00 45 1017.4
20260509100041 21 5 0.0 0.0 0.00 0.00 0.00 46 1017.4
20260509094528 21 5 0.0 0.0 0.00 0.00 0.00 48 1017.4
20260509093021 20 5 0.0 0.0 0.00 0.00 0.00 48 1017.5
20260509091518 20 5 0.0 0.0 0.00 0.00 0.00 49 1017.6
20260509090013 19 5 0.0 0.0 0.00 0.00 0.00 52 1017.6
20260509084514 18 5 0.0 0.0 0.00 0.00 0.00 54 1017.7
20260509083005 18 5 0.0 0.0 0.00 0.00 0.00 58 1017.8
20260509081503 17 5 0.0 0.0 0.00 0.00 0.00 59 1017.6
20260509080100 16 5 0.0 0.0 0.00 0.00 0.00 60 1017.9
20260509074558 16 5 0.0 0.0 0.00 0.00 0.00 64 1017.9
20260509073054 14 5 0.0 0.0 0.00 0.00 0.00 67 1017.9
20260509071555 13 5 0.0 0.0 0.00 0.00 0.00 68 1018.0
20260509070044 13 5 0.0 0.0 0.00 0.00 0.00 70 1018.0